Location: Dayton
(39.7590°N, 84.1920°W)
Time: 04:00:52
(UTC-04:00)

ATLAS CENTAUR R/B - Visible Passes

Search period start: 22 October 2014 00:00
Search period end: 01 November 2014 00:00
Orbit: 250 x 9309 km, 57.4° (Epoch: 15 October)

Date Brightness Start Highest point End Pass type
(mag) Time Alt. Az. Time Alt. Az. Time Alt. Az.
22 Oct 6.0 01:50:24 19° NE 01:50:24 19° NE 01:54:23 10° NE visible
22 Oct 5.2 05:05:45 28° NW 05:10:50 39° N 05:39:36 10° ENE visible
23 Oct 5.1 03:53:05 40° N 03:53:05 40° N 04:12:03 10° NE visible
23 Oct 6.0 07:10:06 10° NW 07:25:44 57° NNE 08:21:25 10° ESE visible
24 Oct 5.6 02:40:16 31° NNE 02:40:16 31° NNE 02:49:41 10° NE visible
24 Oct 5.7 05:55:33 16° NW 06:06:01 45° NNE 06:47:48 10° E visible
25 Oct 6.2 01:27:16 16° NE 01:27:16 16° NE 01:29:54 10° NE visible
25 Oct 5.3 04:42:32 31° NNW 04:46:38 39° N 05:14:15 10° ENE visible
26 Oct 5.3 03:29:21 38° N 03:29:21 38° N 03:46:27 10° NE visible
26 Oct 6.0 06:45:25 10° NW 07:00:36 56° NNE 07:55:02 10° ESE visible
27 Oct 5.8 02:16:00 27° NE 02:16:00 27° NE 02:23:48 10° NE visible
27 Oct 5.6 05:31:14 20° NW 05:40:29 44° NNE 06:20:42 10° E visible
28 Oct 6.4 01:02:29 12° NE 01:02:29 12° NE 01:03:39 10° NE visible
28 Oct 5.3 04:17:41 34° NNW 04:20:39 38° N 04:46:52 10° ENE visible
29 Oct 5.5 03:03:59 35° NNE 03:03:59 35° NNE 03:18:59 10° NE visible
29 Oct 6.0 06:19:09 11° NW 06:33:40 55° NNE 07:26:33 10° ESE visible
30 Oct 6.0 01:50:07 22° NE 01:50:07 22° NE 01:56:09 10° NE visible
30 Oct 5.6 05:05:16 24° NW 05:13:10 43° NNE 05:51:27 10° E visible
31 Oct 5.4 03:51:13 36° N 03:52:55 37° N 04:17:31 10° ENE visible
31 Oct 6.2 07:08:01 10° NW 07:25:53 71° NE 08:26:56 10° SE visible
